Weather History for K1A5 - November, 2012

Change the Weather History Date:

Saturday, November 24, 2012

  Actual Average (KTOC) Record (KTOC)
Temperature  
Mean Temperature 32 °F -  
Max Temperature 44 °F 61 °F 74 °F (2014)
Min Temperature 21 °F 39 °F 30 °F (2013)
Degree Days  
Heating Degree Days 32    
Moisture  
Dew Point 18 °F    
Average Humidity 53    
Maximum Humidity 86    
Minimum Humidity 23    
Precipitation  
Precipitation 0.00 in - - ()
Sea Level Pressure  
Sea Level Pressure 30.07 in    
Wind  
Wind Speed 7 mph (WNW)    
Max Wind Speed 13 mph    
Max Gust Speed 22 mph    
Visibility 10 miles    
Events      
Averages and records for this station are not official NWS values.
T = Trace of Precipitation, MM = Missing Value Source: NWS Daily Summary

Daily Weather History Graph

Daily Weather History Graph

Search for Another Location

Airport or City:

Trip Planner

Search our weather history database for the weather conditions in past years. The results will help you decide how hot, cold, wet, or windy it might be!

Date:

Astronomy

Nov. 24, 2012 Rise Set
Actual Time 7:17 AM EST 5:23 PM EST
Civil Twilight 6:50 AM EST 5:50 PM EST
Nautical Twilight 6:19 AM EST 6:21 PM EST
Astronomical Twilight 5:48 AM EST 6:52 PM EST
Moon 3:01 PM EST (11/24) 3:40 AM EST (11/24)
Length of Visible Light 11h 00m
Length of Day
10h 05m
Waxing Gibbous, 87% of the Moon is Illuminated
Nov 24
Waxing Gibbous
Nov 28
Full
Dec 6
Last Quarter
Dec 13
New
Dec 20
First Quarter

Hourly Weather History & Observations

Time (EST) Temp. Windchill Dew Point Humidity Pressure Visibility Wind Dir Wind Speed Gust Speed Precip Events Conditions
12:15 AM 41.0 °F 34.3 °F 26.6 °F 57% 30.05 in 10.0 mi WNW 11.5 mph 17.3 mph N/A   Clear
12:35 AM 41.0 °F 38.0 °F 26.6 °F 57% 30.04 in 10.0 mi WNW 4.6 mph - N/A   Clear
1:15 AM 39.2 °F 34.2 °F 26.6 °F 61% 30.04 in 10.0 mi WNW 6.9 mph - N/A   Clear
1:35 AM 37.4 °F 32.8 °F 26.6 °F 65% 30.04 in 10.0 mi WNW 5.8 mph - N/A   Clear
1:55 AM 37.4 °F 32.1 °F 26.6 °F 65% 30.05 in 10.0 mi WNW 6.9 mph 17.3 mph N/A   Scattered Clouds
2:15 AM 37.4 °F 32.1 °F 26.6 °F 65% 30.05 in 10.0 mi West 6.9 mph - N/A   Mostly Cloudy
2:35 AM 37.4 °F 33.8 °F 26.6 °F 65% 30.04 in 10.0 mi WNW 4.6 mph - N/A   Mostly Cloudy
2:55 AM 37.4 °F 32.8 °F 28.4 °F 70% 30.04 in 10.0 mi West 5.8 mph - N/A   Mostly Cloudy
3:15 AM 37.4 °F 33.8 °F 26.6 °F 65% 30.04 in 10.0 mi WNW 4.6 mph - N/A   Mostly Cloudy
3:35 AM 37.4 °F 33.8 °F 26.6 °F 65% 30.05 in 10.0 mi WNW 4.6 mph - N/A   Overcast
3:55 AM 35.6 °F 28.0 °F 26.6 °F 70% 30.04 in 10.0 mi WNW 10.4 mph - N/A   Overcast
4:15 AM 35.6 °F 29.9 °F 26.6 °F 70% 30.04 in 10.0 mi West 6.9 mph 16.1 mph N/A   Overcast
4:35 AM 35.6 °F 32.8 °F 26.6 °F 70% 30.04 in 10.0 mi WNW 3.5 mph - N/A   Overcast
4:55 AM 35.6 °F 28.6 °F 26.6 °F 70% 30.04 in 10.0 mi WNW 9.2 mph - N/A   Mostly Cloudy
5:15 AM 33.8 °F 27.7 °F 26.6 °F 75% 30.04 in 10.0 mi WNW 6.9 mph - N/A   Scattered Clouds
5:35 AM 33.8 °F 30.8 °F 24.8 °F 70% 30.04 in 10.0 mi NNW 3.5 mph - N/A   Clear
5:55 AM 33.8 °F 28.6 °F 24.8 °F 70% 30.05 in 10.0 mi WNW 5.8 mph - N/A   Clear
6:15 AM 33.8 °F 27.7 °F 24.8 °F 70% 30.05 in 10.0 mi WNW 6.9 mph - N/A   Clear
6:35 AM 33.8 °F 30.8 °F 24.8 °F 70% 30.04 in 10.0 mi WNW 3.5 mph - N/A   Clear
6:55 AM 32.0 °F - 23.0 °F 69% 30.05 in 10.0 mi Calm Calm - N/A   Clear
7:15 AM 32.0 °F 25.6 °F 23.0 °F 69% 30.06 in 10.0 mi WNW 6.9 mph - N/A   Clear
7:35 AM 32.0 °F 24.2 °F 23.0 °F 69% 30.06 in 10.0 mi NNE 9.2 mph - N/A   Clear
7:55 AM 32.0 °F 26.4 °F 23.0 °F 69% 30.07 in 10.0 mi NW 5.8 mph - N/A   Clear
8:15 AM 33.8 °F 26.4 °F 23.0 °F 65% 30.07 in 10.0 mi NW 9.2 mph - N/A   Clear
8:35 AM 33.8 °F 28.6 °F 21.2 °F 60% 30.08 in 10.0 mi WNW 5.8 mph - N/A   Clear
8:55 AM 33.8 °F 27.0 °F 21.2 °F 60% 30.08 in 10.0 mi WNW 8.1 mph 16.1 mph N/A   Clear
9:15 AM 35.6 °F 28.0 °F 21.2 °F 56% 30.08 in 10.0 mi WNW 10.4 mph 16.1 mph N/A   Clear
9:35 AM 35.6 °F 29.9 °F 19.4 °F 52% 30.08 in 10.0 mi WNW 6.9 mph - N/A   Clear
9:55 AM 37.4 °F 30.8 °F 17.6 °F 45% 30.08 in 10.0 mi WNW 9.2 mph 17.3 mph N/A   Clear
10:15 AM 37.4 °F 32.1 °F 17.6 °F 45% 30.08 in 10.0 mi WNW 6.9 mph - N/A   Clear
10:35 AM 39.2 °F 33.6 °F 15.8 °F 39% 30.08 in 10.0 mi WNW 8.1 mph 16.1 mph N/A   Clear
10:55 AM 41.0 °F 34.7 °F 14.0 °F 33% 30.08 in 10.0 mi NW 10.4 mph 18.4 mph N/A   Clear
11:15 AM 41.0 °F 38.0 °F 14.0 °F 33% 30.08 in 10.0 mi NW 4.6 mph 16.1 mph N/A   Clear
11:35 AM 41.0 °F 36.4 °F 12.2 °F 31% 30.07 in 10.0 mi WNW 6.9 mph 17.3 mph N/A   Clear
11:55 AM 42.8 °F 38.0 °F 12.2 °F 29% 30.06 in 10.0 mi WNW 8.1 mph - N/A   Clear
12:15 PM 42.8 °F 38.6 °F 10.4 °F 27% 30.05 in 10.0 mi WNW 6.9 mph - N/A   Clear
12:35 PM 44.6 °F 40.2 °F 12.2 °F 27% 30.04 in 10.0 mi WNW 8.1 mph 18.4 mph N/A   Clear
12:55 PM 44.6 °F 38.8 °F 10.4 °F 25% 30.04 in 10.0 mi WNW 11.5 mph - N/A   Clear
1:15 PM 44.6 °F 38.4 °F 8.6 °F 23% 30.04 in 10.0 mi WNW 12.7 mph 18.4 mph N/A   Clear
1:35 PM 44.6 °F 38.8 °F 8.6 °F 23% 30.04 in 10.0 mi WNW 11.5 mph 18.4 mph N/A   Clear
1:55 PM 44.6 °F 40.7 °F 8.6 °F 23% 30.05 in 10.0 mi WNW 6.9 mph 21.9 mph N/A   Clear
2:15 PM 44.6 °F 39.2 °F 10.4 °F 25% 30.05 in 10.0 mi WNW 10.4 mph - N/A   Clear
2:35 PM 44.6 °F 39.7 °F 10.4 °F 25% 30.05 in 10.0 mi WNW 9.2 mph 19.6 mph N/A   Clear
2:55 PM 44.6 °F 40.7 °F 10.4 °F 25% 30.05 in 10.0 mi NW 6.9 mph - N/A   Clear
3:15 PM 42.8 °F 38.6 °F 10.4 °F 27% 30.05 in 10.0 mi WNW 6.9 mph 21.9 mph N/A   Clear
3:35 PM 42.8 °F 38.6 °F 10.4 °F 27% 30.05 in 10.0 mi WNW 6.9 mph 19.6 mph N/A   Clear
3:55 PM 42.8 °F 37.0 °F 10.4 °F 27% 30.05 in 10.0 mi NW 10.4 mph 17.3 mph N/A   Clear
4:15 PM 42.8 °F 38.0 °F 10.4 °F 27% 30.06 in 10.0 mi WNW 8.1 mph 16.1 mph N/A   Clear
4:35 PM 41.0 °F 34.7 °F 10.4 °F 29% 30.06 in 10.0 mi WNW 10.4 mph 17.3 mph N/A   Clear
4:55 PM 41.0 °F 34.3 °F 10.4 °F 29% 30.07 in 10.0 mi NW 11.5 mph 17.3 mph N/A   Clear
5:15 PM 37.4 °F 31.4 °F 10.4 °F 33% 30.07 in 10.0 mi WNW 8.1 mph - N/A   Clear
5:35 PM 37.4 °F 32.1 °F 10.4 °F 33% 30.07 in 10.0 mi WNW 6.9 mph - N/A   Clear
5:55 PM 37.4 °F 33.8 °F 10.4 °F 33% 30.08 in 10.0 mi NW 4.6 mph - N/A   Clear
6:15 PM 35.6 °F 29.9 °F 12.2 °F 38% 30.09 in 10.0 mi WNW 6.9 mph - N/A   Clear
6:35 PM 35.6 °F 31.7 °F 14.0 °F 41% 30.09 in 10.0 mi WNW 4.6 mph - N/A   Clear
6:55 PM 33.8 °F 27.7 °F 14.0 °F 44% 30.09 in 10.0 mi WNW 6.9 mph - N/A   Clear
7:15 PM 33.8 °F 27.7 °F 14.0 °F 44% 30.10 in 10.0 mi NNE 6.9 mph - N/A   Clear
7:35 PM 33.8 °F 27.7 °F 15.8 °F 48% 30.10 in 10.0 mi NW 6.9 mph - N/A   Clear
7:55 PM 33.8 °F 28.6 °F 17.6 °F 52% 30.11 in 10.0 mi North 5.8 mph - N/A   Clear
8:15 PM 33.8 °F - 17.6 °F 52% 30.11 in 10.0 mi Calm Calm - N/A   Clear
8:35 PM 30.2 °F - 17.6 °F 60% 30.11 in 10.0 mi Calm Calm - N/A   Clear
8:55 PM 28.4 °F - 17.6 °F 64% 30.11 in 10.0 mi Calm Calm - N/A   Clear
9:15 PM 26.6 °F 20.0 °F 17.6 °F 69% 30.11 in 10.0 mi West 5.8 mph - N/A   Clear
9:35 PM 26.6 °F - 17.6 °F 69% 30.11 in 10.0 mi Calm Calm - N/A   Clear
9:55 PM 26.6 °F - 19.4 °F 74% 30.11 in 10.0 mi Calm Calm - N/A   Clear
10:15 PM 24.8 °F - 19.4 °F 80% 30.11 in 10.0 mi Calm Calm - N/A   Clear
10:35 PM 24.8 °F - 19.4 °F 80% 30.11 in 10.0 mi Calm Calm - N/A   Clear
10:55 PM 23.0 °F - 17.6 °F 80% 30.11 in 10.0 mi Calm Calm - N/A   Clear
11:15 PM 21.2 °F - 17.6 °F 86% 30.11 in 10.0 mi Calm Calm - N/A   Clear
11:35 PM 21.2 °F - 17.6 °F 86% 30.11 in 10.0 mi Calm Calm - N/A   Clear
11:55 PM 21.2 °F - 17.6 °F 86% 30.11 in 10.0 mi Calm Calm - N/A   Clear